• In Netherlands
  • List of Countries
  • For 7 days
  • Water Temperature
  • Satellite Maps
  • Weather Map
  • Weather Widgets
  • user-avatar
    Login

    Hourly Weather Algiers

    Today, 21 July, Friday

    Time Temperature Precipitation Wind Pressure Humidity
    00:00 +29°C° 0 mm 1 mps 745 mmHg 65%
    01:00 +29°C° 0 mm 1 mps 745 mmHg 64%
    02:00 +29°C° 0 mm 1 mps 745 mmHg 64%
    03:00 +29°C° 0 mm 2 mps 745 mmHg 63%
    04:00 +29°C° 0 mm 2 mps 745 mmHg 65%
    05:00 +28°C° 0 mm 2 mps 745 mmHg 66%
    06:00 +28°C° 0 mm 2 mps 745 mmHg 68%
    07:00 +29°C° 0 mm 2 mps 745 mmHg 62%
    08:00 +31°C° 0 mm 2 mps 746 mmHg 56%
    09:00 +33°C° 0 mm 3 mps 746 mmHg 50%
    10:00 +34°C° 0 mm 3 mps 746 mmHg 48%
    11:00 +35°C° 0 mm 3 mps 746 mmHg 45%
    12:00 +35°C° 0 mm 3 mps 746 mmHg 42%
    13:00 +36°C° 0 mm 3 mps 746 mmHg 41%
    14:00 +36°C° 0 mm 3 mps 745 mmHg 40%
    15:00 +36°C° 0 mm 4 mps 745 mmHg 39%
    16:00 +35°C° 0 mm 3 mps 745 mmHg 41%
    17:00 +34°C° 0 mm 2 mps 745 mmHg 43%
    18:00 +32°C° 0 mm 1 mps 746 mmHg 45%
    19:00 +31°C° 0 mm 1 mps 746 mmHg 48%
    20:00 +30°C° 0 mm 1 mps 746 mmHg 52%
    21:00 +29°C° 0 mm 1 mps 747 mmHg 55%
    22:00 +29°C° 0 mm 1 mps 747 mmHg 54%
    23:00 +30°C° 0 mm 1 mps 746 mmHg 54%

    Tomorrow, 22 July, Saturday

    Time Temperature Precipitation Wind Pressure Humidity
    00:00 +30°C° 0 mm 1 mps 746 mmHg 53%
    01:00 +30°C° 0 mm 2 mps 746 mmHg 53%
    02:00 +31°C° 0 mm 3 mps 746 mmHg 52%
    03:00 +31°C° 0 mm 3 mps 746 mmHg 52%
    04:00 +30°C° 0 mm 3 mps 746 mmHg 54%
    05:00 +30°C° 0 mm 3 mps 746 mmHg 56%
    06:00 +29°C° 0 mm 3 mps 747 mmHg 59%
    07:00 +33°C° 0 mm 3 mps 747 mmHg 49%
    08:00 +36°C° 0 mm 3 mps 747 mmHg 40%
    09:00 +38°C° 0 mm 3 mps 747 mmHg 30%
    10:00 +40°C° 0 mm 4 mps 747 mmHg 30%
    11:00 +41°C° 0 mm 5 mps 747 mmHg 29%
    12:00 +42°C° 0 mm 6 mps 747 mmHg 28%
    13:00 +41°C° 0 mm 5 mps 747 mmHg 34%
    14:00 +40°C° 0 mm 5 mps 746 mmHg 39%
    15:00 +38°C° 0 mm 4 mps 746 mmHg 44%
    16:00 +37°C° 0 mm 4 mps 746 mmHg 48%
    17:00 +36°C° 0 mm 3 mps 747 mmHg 52%
    18:00 +35°C° 0 mm 3 mps 747 mmHg 56%
    19:00 +35°C° 0 mm 3 mps 747 mmHg 56%
    20:00 +35°C° 0 mm 3 mps 747 mmHg 57%
    21:00 +35°C° 0 mm 3 mps 748 mmHg 57%
    22:00 +35°C° 0 mm 3 mps 748 mmHg 51%
    23:00 +36°C° 0 mm 3 mps 748 mmHg 46%

    Day after tomorrow, 23 July, Sunday

    Time Temperature Precipitation Wind Pressure Humidity
    00:00 +36°C° 0 mm 3 mps 747 mmHg 41%
    01:00 +36°C° 0 mm 3 mps 747 mmHg 40%
    02:00 +35°C° 0 mm 3 mps 747 mmHg 38%
    03:00 +35°C° 0 mm 3 mps 747 mmHg 37%
    04:00 +35°C° 0 mm 3 mps 747 mmHg 37%
    05:00 +35°C° 0 mm 4 mps 748 mmHg 36%
    06:00 +35°C° 0 mm 4 mps 748 mmHg 36%
    07:00 +37°C° 0 mm 4 mps 748 mmHg 32%
    08:00 +40°C° 0 mm 4 mps 749 mmHg 29%
    09:00 +42°C° 0 mm 5 mps 749 mmHg 26%
    10:00 +43°C° 0 mm 4 mps 749 mmHg 26%
    11:00 +43°C° 0 mm 4 mps 749 mmHg 26%
    12:00 +44°C° 0 mm 4 mps 748 mmHg 26%
    13:00 +42°C° 0 mm 3 mps 748 mmHg 32%
    14:00 +40°C° 0 mm 2 mps 748 mmHg 38%
    15:00 +38°C° 0 mm 2 mps 748 mmHg 44%
    16:00 +37°C° 0 mm 2 mps 748 mmHg 48%
    17:00 +36°C° 0 mm 2 mps 748 mmHg 53%
    18:00 +35°C° 0 mm 2 mps 748 mmHg 58%
    19:00 +35°C° 0 mm 2 mps 749 mmHg 59%
    20:00 +33°C° 0 mm 1 mps 749 mmHg 60%
    21:00 +33°C° 0 mm 1 mps 749 mmHg 61%
    22:00 +33°C° 0 mm 1 mps 749 mmHg 59%
    23:00 +34°C° 0 mm 2 mps 749 mmHg 57%

    24 July, Monday

    Time Temperature Precipitation Wind Pressure Humidity
    00:00 +34°C° 0 mm 2 mps 749 mmHg 55%
    01:00 +32°C° 0 mm 2 mps 748 mmHg 61%
    02:00 +31°C° 0 mm 2 mps 748 mmHg 67%
    03:00 +29°C° 0 mm 2 mps 748 mmHg 73%
    04:00 +29°C° 0 mm 2 mps 748 mmHg 75%
    05:00 +29°C° 0 mm 2 mps 749 mmHg 78%
    06:00 +28°C° 0 mm 2 mps 749 mmHg 80%
    07:00 +29°C° 0 mm 2 mps 749 mmHg 74%
    08:00 +30°C° 0 mm 1 mps 749 mmHg 69%
    09:00 +32°C° 0 mm 1 mps 749 mmHg 63%
    10:00 +33°C° 0 mm 1 mps 749 mmHg 58%
    11:00 +34°C° 0 mm 1 mps 749 mmHg 52%
    12:00 +36°C° 0 mm 2 mps 749 mmHg 47%
    13:00 +36°C° 0 mm 3 mps 748 mmHg 46%
    14:00 +37°C° 0 mm 3 mps 748 mmHg 44%
    15:00 +38°C° 0 mm 4 mps 748 mmHg 43%
    16:00 +36°C° 0 mm 4 mps 748 mmHg 49%
    17:00 +35°C° 0 mm 4 mps 748 mmHg 54%
    18:00 +33°C° 0 mm 4 mps 748 mmHg 60%
    19:00 +32°C° 0 mm 4 mps 748 mmHg 66%
    20:00 +30°C° 0 mm 4 mps 748 mmHg 71%
    21:00 +28°C° 0 mm 4 mps 749 mmHg 77%
    22:00 +28°C° 0 mm 3 mps 749 mmHg 78%
    23:00 +28°C° 0 mm 3 mps 748 mmHg 80%

    25 July, Tuesday

    Time Temperature Precipitation Wind Pressure Humidity
    00:00 +27°C° 0 mm 3 mps 748 mmHg 81%
    01:00 +27°C° 0 mm 3 mps 748 mmHg 82%
    02:00 +26°C° 0 mm 4 mps 748 mmHg 83%
    03:00 +26°C° 0 mm 4 mps 748 mmHg 84%
    04:00 +26°C° 0 mm 4 mps 748 mmHg 81%
    05:00 +27°C° 0 mm 4 mps 748 mmHg 78%
    06:00 +27°C° 0 mm 4 mps 748 mmHg 75%
    07:00 +29°C° 0 mm 5 mps 748 mmHg 64%
    08:00 +32°C° 0 mm 5 mps 748 mmHg 53%
    09:00 +34°C° 0 mm 6 mps 747 mmHg 42%
    10:00 +35°C° 0 mm 6 mps 747 mmHg 38%
    11:00 +36°C° 0 mm 7 mps 747 mmHg 35%
    12:00 +39°C° 0 mm 7 mps 747 mmHg 31%
    13:00 +38°C° 0 mm 7 mps 747 mmHg 34%
    14:00 +38°C° 0 mm 8 mps 747 mmHg 37%
    15:00 +37°C° 0 mm 8 mps 746 mmHg 40%
    16:00 +35°C° 0 mm 7 mps 747 mmHg 45%
    17:00 +33°C° 0 mm 7 mps 747 mmHg 50%
    18:00 +32°C° 0 mm 7 mps 747 mmHg 54%
    19:00 +30°C° 0 mm 6 mps 747 mmHg 61%
    20:00 +28°C° 0 mm 6 mps 747 mmHg 67%
    21:00 +27°C° 0 mm 5 mps 748 mmHg 73%
    22:00 +26°C° 0 mm 5 mps 748 mmHg 75%
    23:00 +26°C° 0 mm 4 mps 748 mmHg 77%

    26 July, Wednesday

    Time Temperature Precipitation Wind Pressure Humidity
    00:00 +25°C° 0 mm 4 mps 748 mmHg 79%
    01:00 +25°C° 0 mm 4 mps 748 mmHg 80%
    02:00 +25°C° 0 mm 4 mps 748 mmHg 80%
    03:00 +23°C° 0 mm 4 mps 748 mmHg 81%
    04:00 +25°C° 0 mm 4 mps 748 mmHg 78%
    05:00 +25°C° 0 mm 4 mps 748 mmHg 75%
    06:00 +26°C° 0 mm 4 mps 749 mmHg 72%
    07:00 +28°C° 0 mm 4 mps 749 mmHg 61%
    08:00 +30°C° 0 mm 4 mps 749 mmHg 50%
    09:00 +33°C° 0 mm 4 mps 749 mmHg 39%
    10:00 +34°C° 0 mm 4 mps 749 mmHg 37%
    11:00 +35°C° 0 mm 5 mps 749 mmHg 35%
    12:00 +36°C° 0 mm 6 mps 749 mmHg 33%
    13:00 +38°C° 0 mm 6 mps 748 mmHg 32%
    14:00 +38°C° 0 mm 6 mps 748 mmHg 32%
    15:00 +38°C° 0 mm 6 mps 748 mmHg 31%
    16:00 +36°C° 0 mm 6 mps 748 mmHg 32%
    17:00 +35°C° 0 mm 6 mps 748 mmHg 33%
    18:00 +35°C° 0 mm 6 mps 748 mmHg 34%
    19:00 +33°C° 0 mm 5 mps 748 mmHg 38%
    20:00 +32°C° 0 mm 5 mps 748 mmHg 42%
    21:00 +29°C° 0 mm 4 mps 749 mmHg 46%
    22:00 +29°C° 0 mm 4 mps 749 mmHg 45%
    23:00 +29°C° 0 mm 4 mps 749 mmHg 45%
    Show more